| time (UTC) | temp F | wind direction | speed MPH | gust MPH | rain 1hr in | rain 24hr in | rain mn in | humidity % | barometer mb |
| 20260902045351 | 72 | 157 | 13.0 | 13.0 | 0.00 | 0.00 | 0.00 | 44 | 1016.4 |
| 20260902044848 | 72 | 159 | 9.0 | 16.0 | 0.00 | 0.00 | 0.00 | 44 | 1016.4 |
| 20260902044343 | 72 | 166 | 8.0 | 15.0 | 0.00 | 0.00 | 0.00 | 44 | 1016.1 |
| 20260902043842 | 72 | 145 | 13.0 | 17.0 | 0.00 | 0.00 | 0.00 | 44 | 1016.3 |
| 20260902043339 | 73 | 165 | 7.0 | 14.0 | 0.00 | 0.00 | 0.00 | 44 | 1016.6 |
| 20260902042838 | 73 | 154 | 14.0 | 15.0 | 0.00 | 0.00 | 0.00 | 43 | 1016.4 |
| 20260902042337 | 73 | 159 | 11.0 | 14.0 | 0.00 | 0.00 | 0.00 | 43 | 1016.3 |
| 20260902041833 | 73 | 153 | 9.0 | 11.0 | 0.00 | 0.00 | 0.00 | 42 | 1016.4 |
| 20260902041333 | 73 | 161 | 9.0 | 13.0 | 0.00 | 0.00 | 0.00 | 42 | 1016.4 |
| 20260902040832 | 73 | 171 | 7.0 | 14.0 | 0.00 | 0.00 | 0.00 | 41 | 1016.3 |
| 20260902040328 | 73 | 160 | 9.0 | 15.0 | 0.00 | 0.00 | 0.00 | 41 | 1016.3 |
| 20260902035826 | 73 | 170 | 6.0 | 13.0 | 0.00 | 0.00 | 0.00 | 42 | 1016.3 |
| 20260902035322 | 73 | 155 | 6.0 | 11.0 | 0.00 | 0.00 | 0.00 | 41 | 1016.3 |
| 20260902034821 | 73 | 158 | 6.0 | 15.0 | 0.00 | 0.00 | 0.00 | 41 | 1016.0 |
| 20260902034316 | 73 | 173 | 7.0 | 13.0 | 0.00 | 0.00 | 0.00 | 42 | 1016.2 |
| 20260902033814 | 73 | 166 | 6.0 | 14.0 | 0.00 | 0.00 | 0.00 | 42 | 1015.9 |
| 20260902033310 | 73 | 172 | 8.0 | 13.0 | 0.00 | 0.00 | 0.00 | 42 | 1015.9 |
| 20260902032808 | 73 | 175 | 9.0 | 12.0 | 0.00 | 0.00 | 0.00 | 42 | 1016.0 |
| 20260902032306 | 73 | 181 | 10.0 | 12.0 | 0.00 | 0.00 | 0.00 | 42 | 1015.7 |
| 20260902031803 | 73 | 165 | 9.0 | 12.0 | 0.00 | 0.00 | 0.00 | 42 | 1015.9 |
| 20260902031259 | 73 | 180 | 9.0 | 10.0 | 0.00 | 0.00 | 0.00 | 42 | 1015.6 |
| 20260902030754 | 73 | 149 | 9.0 | 11.0 | 0.00 | 0.00 | 0.00 | 42 | 1015.7 |
| 20260902030249 | 72 | 176 | 8.0 | 13.0 | 0.00 | 0.00 | 0.00 | 42 | 1015.9 |
| 20260902025748 | 73 | 157 | 8.0 | 12.0 | 0.00 | 0.00 | 0.00 | 42 | 1015.7 |
| 20260902025244 | 73 | 196 | 6.0 | 9.0 | 0.00 | 0.00 | 0.00 | 42 | 1015.6 |
| 20260902024738 | 73 | 172 | 6.0 | 14.0 | 0.00 | 0.00 | 0.00 | 42 | 1015.4 |
| 20260902024234 | 73 | 157 | 11.0 | 13.0 | 0.00 | 0.00 | 0.00 | 42 | 1015.3 |
| 20260902023730 | 73 | 177 | 9.0 | 12.0 | 0.00 | 0.00 | 0.00 | 42 | 1015.3 |
| 20260902023224 | 73 | 154 | 10.0 | 11.0 | 0.00 | 0.00 | 0.00 | 42 | 1015.3 |
| 20260902022724 | 73 | 172 | 3.0 | 12.0 | 0.00 | 0.00 | 0.00 | 42 | 1015.2 |
| 20260902022220 | 74 | 160 | 9.0 | 15.0 | 0.00 | 0.00 | 0.00 | 42 | 1015.1 |
| 20260902021716 | 74 | 167 | 8.0 | 12.0 | 0.00 | 0.00 | 0.00 | 41 | 1015.3 |
| 20260902021215 | 74 | 170 | 11.0 | 12.0 | 0.00 | 0.00 | 0.00 | 41 | 1015.3 |
| 20260902020711 | 75 | 165 | 10.0 | 13.0 | 0.00 | 0.00 | 0.00 | 40 | 1015.1 |
| 20260902020207 | 75 | 172 | 6.0 | 13.0 | 0.00 | 0.00 | 0.00 | 40 | 1015.3 |
| 20260902015702 | 75 | 141 | 7.0 | 15.0 | 0.00 | 0.00 | 0.00 | 40 | 1015.2 |
| 20260902015159 | 75 | 140 | 8.0 | 14.0 | 0.00 | 0.00 | 0.00 | 40 | 1015.2 |
| 20260902014654 | 75 | 160 | 13.0 | 15.0 | 0.00 | 0.00 | 0.00 | 39 | 1015.4 |
| 20260902014150 | 76 | 153 | 7.0 | 15.0 | 0.00 | 0.00 | 0.00 | 40 | 1015.2 |
| 20260902013649 | 76 | 163 | 11.0 | 13.0 | 0.00 | 0.00 | 0.00 | 39 | 1015.3 |
| 20260902013145 | 76 | 158 | 13.0 | 15.0 | 0.00 | 0.00 | 0.00 | 39 | 1015.3 |
| 20260902012640 | 76 | 179 | 10.0 | 16.0 | 0.00 | 0.00 | 0.00 | 39 | 1015.2 |
| 20260902012136 | 77 | 157 | 10.0 | 11.0 | 0.00 | 0.00 | 0.00 | 40 | 1015.4 |
| 20260902011631 | 77 | 141 | 10.0 | 11.0 | 0.00 | 0.00 | 0.00 | 39 | 1015.5 |
| 20260902011131 | 78 | 158 | 4.0 | 13.0 | 0.00 | 0.00 | 0.00 | 39 | 1015.5 |
| 20260902010630 | 78 | 167 | 9.0 | 18.0 | 0.00 | 0.00 | 0.00 | 37 | 1015.5 |
| 20260902010126 | 79 | 173 | 11.0 | 16.0 | 0.00 | 0.00 | 0.00 | 36 | 1015.6 |
| 20260902005624 | 79 | 157 | 9.0 | 15.0 | 0.00 | 0.00 | 0.00 | 37 | 1015.7 |
| 20260902005120 | 79 | 169 | 15.0 | 16.0 | 0.00 | 0.00 | 0.00 | 38 | 1015.7 |
| 20260902004619 | 79 | 143 | 2.0 | 18.0 | 0.00 | 0.00 | 0.00 | 38 | 1015.5 |
| 20260902004115 | 77 | 155 | 7.0 | 15.0 | 0.00 | 0.00 | 0.00 | 39 | 1015.6 |
| 20260902003610 | 76 | 170 | 7.0 | 14.0 | 0.00 | 0.00 | 0.00 | 40 | 1015.7 |
| 20260902003105 | 76 | 163 | 14.0 | 15.0 | 0.00 | 0.00 | 0.00 | 41 | 1015.6 |
| 20260902002601 | 76 | 170 | 3.0 | 13.0 | 0.00 | 0.00 | 0.00 | 40 | 1015.6 |
| 20260902002055 | 77 | 140 | 10.0 | 12.0 | 0.00 | 0.00 | 0.00 | 40 | 1015.7 |
| 20260902001550 | 77 | 148 | 9.0 | 13.0 | 0.00 | 0.00 | 0.00 | 39 | 1015.7 |
| 20260902001045 | 77 | 162 | 11.0 | 12.0 | 0.00 | 0.00 | 0.00 | 39 | 1015.5 |
| 20260902000540 | 78 | 150 | 3.0 | 18.0 | 0.00 | 0.00 | 0.00 | 39 | 1016.0 |
| 20260902000036 | 78 | 153 | 8.0 | 16.0 | 0.00 | 0.00 | 0.00 | 39 | 1015.7 |
| 20260901235530 | 78 | 153 | 7.0 | 16.0 | 0.00 | 0.00 | 0.00 | 38 | 1015.9 |
| 20260901235026 | 77 | 173 | 5.0 | 13.0 | 0.00 | 0.00 | 0.00 | 39 | 1015.9 |
| 20260901234524 | 77 | 176 | 4.0 | 11.0 | 0.00 | 0.00 | 0.00 | 39 | 1015.9 |
| 20260901234020 | 78 | 142 | 8.0 | 15.0 | 0.00 | 0.00 | 0.00 | 38 | 1015.9 |
| 20260901233519 | 78 | 159 | 13.0 | 20.0 | 0.00 | 0.00 | 0.00 | 37 | 1016.1 |
| 20260901233017 | 80 | 140 | 10.0 | 16.0 | 0.00 | 0.00 | 0.00 | 36 | 1015.9 |
| 20260901232517 | 79 | 148 | 9.0 | 16.0 | 0.00 | 0.00 | 0.00 | 37 | 1016.1 |
| 20260901232012 | 79 | 163 | 10.0 | 22.0 | 0.00 | 0.00 | 0.00 | 37 | 1016.1 |
| 20260901231508 | 78 | 172 | 7.0 | 21.0 | 0.00 | 0.00 | 0.00 | 37 | 1016.1 |
| 20260901231005 | 78 | 114 | 6.0 | 13.0 | 0.00 | 0.00 | 0.00 | 37 | 1016.0 |
| 20260901230504 | 80 | 149 | 13.0 | 23.0 | 0.00 | 0.00 | 0.00 | 35 | 1016.2 |
| 20260901225959 | 80 | 164 | 11.0 | 18.0 | 0.00 | 0.00 | 0.00 | 36 | 1016.1 |
| 20260901225500 | 80 | 164 | 5.0 | 15.0 | 0.00 | 0.00 | 0.00 | 37 | 1016.4 |
| 20260901224954 | 78 | 183 | 9.0 | 15.0 | 0.00 | 0.00 | 0.00 | 39 | 1016.4 |
| 20260901224450 | 78 | 132 | 8.0 | 20.0 | 0.00 | 0.00 | 0.00 | 40 | 1016.4 |
| 20260901223946 | 77 | 127 | 14.0 | 21.0 | 0.00 | 0.00 | 0.00 | 41 | 1016.7 |
| 20260901223442 | 77 | 160 | 8.0 | 20.0 | 0.00 | 0.00 | 0.00 | 42 | 1016.7 |
| 20260901222937 | 77 | 181 | 6.0 | 18.0 | 0.00 | 0.00 | 0.00 | 41 | 1016.6 |
| 20260901222433 | 76 | 130 | 9.0 | 19.0 | 0.00 | 0.00 | 0.00 | 42 | 1016.6 |
| 20260901221929 | 76 | 176 | 11.0 | 22.0 | 0.00 | 0.00 | 0.00 | 42 | 1016.8 |
| 20260901221425 | 76 | 163 | 8.0 | 15.0 | 0.00 | 0.00 | 0.00 | 42 | 1017.0 |
| 20260901220919 | 77 | 148 | 5.0 | 11.0 | 0.00 | 0.00 | 0.00 | 40 | 1017.0 |
| 20260901220418 | 77 | 166 | 4.0 | 17.0 | 0.00 | 0.00 | 0.00 | 41 | 1017.4 |
| 20260901215917 | 77 | 119 | 12.0 | 18.0 | 0.00 | 0.00 | 0.00 | 41 | 1017.6 |
| 20260901215416 | 77 | 170 | 5.0 | 15.0 | 0.00 | 0.00 | 0.00 | 40 | 1017.5 |
| 20260901214915 | 77 | 84 | 9.0 | 16.0 | 0.00 | 0.00 | 0.00 | 39 | 1017.3 |
| 20260901214414 | 76 | 110 | 15.0 | 23.0 | 0.00 | 0.00 | 0.00 | 41 | 1017.5 |
| 20260901213914 | 76 | 133 | 8.0 | 19.0 | 0.00 | 0.00 | 0.00 | 41 | 1017.7 |
| 20260901213409 | 75 | 161 | 8.0 | 16.0 | 0.00 | 0.00 | 0.00 | 41 | 1017.7 |
| 20260901212908 | 75 | 186 | 4.0 | 18.0 | 0.00 | 0.00 | 0.00 | 44 | 1018.1 |
| 20260901212404 | 75 | 125 | 22.0 | 22.0 | 0.00 | 0.00 | 0.00 | 43 | 1018.2 |
| 20260901211901 | 76 | 138 | 19.0 | 26.0 | 0.00 | 0.00 | 0.00 | 40 | 1018.3 |
| 20260901211401 | 77 | 161 | 13.0 | 46.0 | 0.00 | 0.00 | 0.00 | 36 | 1018.3 |
| 20260901210857 | 77 | 176 | 11.0 | 19.0 | 0.00 | 0.00 | 0.00 | 41 | 1018.1 |
| 20260901210352 | 78 | 165 | 13.0 | 24.0 | 0.00 | 0.00 | 0.00 | 40 | 1018.3 |
| 20260901205849 | 78 | 159 | 4.0 | 16.0 | 0.00 | 0.00 | 0.00 | 42 | 1018.2 |
| 20260901205348 | 77 | 157 | 11.0 | 22.0 | 0.00 | 0.00 | 0.00 | 40 | 1017.9 |
| 20260901204844 | 78 | 145 | 9.0 | 23.0 | 0.00 | 0.00 | 0.00 | 39 | 1017.9 |
| 20260901204340 | 78 | 153 | 8.0 | 16.0 | 0.00 | 0.00 | 0.00 | 42 | 1018.1 |
| 20260901203841 | 78 | 113 | 5.0 | 19.0 | 0.00 | 0.00 | 0.00 | 39 | 1018.1 |
| 20260901203334 | 78 | 116 | 11.0 | 14.0 | 0.00 | 0.00 | 0.00 | 41 | 1018.4 |
| 20260901202829 | 79 | 121 | 8.0 | 20.0 | 0.00 | 0.00 | 0.00 | 40 | 1018.5 |
| 20260901202324 | 79 | 128 | 13.0 | 15.0 | 0.00 | 0.00 | 0.00 | 40 | 1018.5 |
| 20260901201821 | 79 | 166 | 9.0 | 15.0 | 0.00 | 0.00 | 0.00 | 43 | 1018.8 |
| 20260901201320 | 78 | 155 | 11.0 | 15.0 | 0.00 | 0.00 | 0.00 | 40 | 1018.6 |
| 20260901200820 | 77 | 141 | 7.0 | 17.0 | 0.00 | 0.00 | 0.00 | 43 | 1019.0 |
| 20260901200315 | 76 | 125 | 4.0 | 13.0 | 0.00 | 0.00 | 0.00 | 41 | 1019.0 |
| 20260901195815 | 77 | 167 | 7.0 | 10.0 | 0.00 | 0.00 | 0.00 | 42 | 1019.0 |
| 20260901195313 | 79 | 157 | 17.0 | 19.0 | 0.00 | 0.00 | 0.00 | 40 | 1019.3 |
| 20260901194808 | 79 | 174 | 7.0 | 12.0 | 0.00 | 0.00 | 0.00 | 42 | 1019.1 |
| 20260901194303 | 78 | 180 | 8.0 | 15.0 | 0.00 | 0.00 | 0.00 | 42 | 1019.1 |
| 20260901193759 | 77 | 176 | 4.0 | 18.0 | 0.00 | 0.00 | 0.00 | 43 | 1019.3 |
| 20260901193258 | 77 | 146 | 9.0 | 20.0 | 0.00 | 0.00 | 0.00 | 43 | 1019.0 |
| 20260901192752 | 77 | 169 | 8.0 | 20.0 | 0.00 | 0.00 | 0.00 | 43 | 1019.5 |
| 20260901192248 | 78 | 196 | 12.0 | 15.0 | 0.00 | 0.00 | 0.00 | 45 | 1019.2 |
| 20260901191744 | 76 | 150 | 6.0 | 11.0 | 0.00 | 0.00 | 0.00 | 46 | 1019.3 |
| 20260901191240 | 75 | 160 | 10.0 | 26.0 | 0.00 | 0.00 | 0.00 | 44 | 1019.6 |
| 20260901190736 | 75 | 162 | 11.0 | 14.0 | 0.00 | 0.00 | 0.00 | 45 | 1019.6 |
| 20260901190235 | 75 | 166 | 11.0 | 19.0 | 0.00 | 0.00 | 0.00 | 45 | 1019.7 |
| 20260901185734 | 75 | 167 | 9.0 | 21.0 | 0.00 | 0.00 | 0.00 | 45 | 1019.2 |
| 20260901185233 | 75 | 140 | 11.0 | 19.0 | 0.00 | 0.00 | 0.00 | 45 | 1019.7 |
| 20260901184729 | 74 | 132 | 10.0 | 22.0 | 0.00 | 0.00 | 0.00 | 45 | 1019.9 |
| 20260901184224 | 75 | 188 | 3.0 | 20.0 | 0.00 | 0.00 | 0.00 | 45 | 1019.7 |
| 20260901183720 | 75 | 134 | 8.0 | 18.0 | 0.00 | 0.00 | 0.00 | 45 | 1019.7 |
| 20260901183219 | 74 | 151 | 8.0 | 21.0 | 0.00 | 0.00 | 0.00 | 47 | 1020.0 |
| 20260901182715 | 73 | 147 | 13.0 | 20.0 | 0.00 | 0.00 | 0.00 | 47 | 1019.9 |
| 20260901182214 | 74 | 174 | 2.0 | 24.0 | 0.00 | 0.00 | 0.00 | 46 | 1019.9 |
| 20260901181710 | 74 | 158 | 11.0 | 15.0 | 0.00 | 0.00 | 0.00 | 47 | 1020.5 |
| 20260901181204 | 74 | 166 | 5.0 | 16.0 | 0.00 | 0.00 | 0.00 | 48 | 1020.1 |
| 20260901180703 | 74 | 144 | 5.0 | 13.0 | 0.00 | 0.00 | 0.00 | 48 | 1020.3 |
| 20260901180203 | 73 | 145 | 12.0 | 19.0 | 0.00 | 0.00 | 0.00 | 47 | 1020.3 |
| 20260901175702 | 74 | 147 | 8.0 | 21.0 | 0.00 | 0.00 | 0.00 | 46 | 1020.5 |
| 20260901175202 | 74 | 191 | 8.0 | 20.0 | 0.00 | 0.00 | 0.00 | 45 | 1020.3 |
| 20260901174657 | 75 | 137 | 14.0 | 20.0 | 0.00 | 0.00 | 0.00 | 45 | 1020.3 |
| 20260901174153 | 74 | 165 | 8.0 | 19.0 | 0.00 | 0.00 | 0.00 | 44 | 1020.0 |
| 20260901173649 | 75 | 148 | 8.0 | 19.0 | 0.00 | 0.00 | 0.00 | 46 | 1020.3 |
| 20260901173144 | 75 | 145 | 15.0 | 21.0 | 0.00 | 0.00 | 0.00 | 45 | 1020.3 |
| 20260901172640 | 74 | 130 | 13.0 | 22.0 | 0.00 | 0.00 | 0.00 | 45 | 1020.3 |
| 20260901172137 | 73 | 146 | 13.0 | 20.0 | 0.00 | 0.00 | 0.00 | 47 | 1020.3 |
| 20260901171631 | 74 | 170 | 11.0 | 24.0 | 0.00 | 0.00 | 0.00 | 45 | 1020.3 |
| 20260901171125 | 75 | 145 | 19.0 | 23.0 | 0.00 | 0.00 | 0.00 | 44 | 1020.1 |
| 20260901170625 | 74 | 154 | 6.0 | 17.0 | 0.00 | 0.00 | 0.00 | 47 | 1020.0 |
| 20260901170120 | 73 | 156 | 19.0 | 22.0 | 0.00 | 0.00 | 0.00 | 49 | 1020.0 |
| 20260901165618 | 72 | 153 | 9.0 | 20.0 | 0.00 | 0.00 | 0.00 | 48 | 1020.0 |
| 20260901165114 | 72 | 143 | 17.0 | 23.0 | 0.00 | 0.00 | 0.00 | 48 | 1019.8 |
| 20260901164609 | 71 | 155 | 18.0 | 23.0 | 0.00 | 0.00 | 0.00 | 50 | 1020.0 |
| 20260901164104 | 70 | 144 | 22.0 | 22.0 | 0.00 | 0.00 | 0.00 | 50 | 1020.0 |
| 20260901163600 | 69 | 167 | 8.0 | 19.0 | 0.00 | 0.00 | 0.00 | 50 | 1020.1 |
| 20260901163059 | 69 | 133 | 18.0 | 20.0 | 0.00 | 0.00 | 0.00 | 50 | 1019.8 |
| 20260901162554 | 69 | 156 | 16.0 | 25.0 | 0.00 | 0.00 | 0.00 | 52 | 1020.0 |
| 20260901162053 | 68 | 158 | 17.0 | 23.0 | 0.00 | 0.00 | 0.00 | 54 | 1020.0 |
| 20260901161553 | 68 | 145 | 13.0 | 23.0 | 0.00 | 0.00 | 0.00 | 53 | 1019.9 |
| 20260901161052 | 68 | 154 | 13.0 | 27.0 | 0.00 | 0.00 | 0.00 | 52 | 1020.1 |
| 20260901160549 | 69 | 156 | 14.0 | 25.0 | 0.00 | 0.00 | 0.00 | 52 | 1019.8 |
| 20260901160044 | 69 | 148 | 19.0 | 24.0 | 0.00 | 0.00 | 0.00 | 53 | 1019.9 |
| 20260901155543 | 69 | 154 | 17.0 | 26.0 | 0.00 | 0.00 | 0.00 | 51 | 1019.9 |
| 20260901155039 | 71 | 164 | 12.0 | 25.0 | 0.00 | 0.00 | 0.00 | 50 | 1019.9 |
| 20260901154538 | 70 | 140 | 24.0 | 25.0 | 0.00 | 0.00 | 0.00 | 50 | 1020.0 |
| 20260901154033 | 69 | 127 | 9.0 | 19.0 | 0.00 | 0.00 | 0.00 | 51 | 1019.9 |
| 20260901153528 | 68 | 161 | 19.0 | 23.0 | 0.00 | 0.00 | 0.00 | 53 | 1019.8 |
| 20260901153028 | 67 | 164 | 12.0 | 21.0 | 0.00 | 0.00 | 0.00 | 56 | 1020.0 |
| 20260901152522 | 66 | 175 | 11.0 | 22.0 | 0.00 | 0.00 | 0.00 | 55 | 1020.1 |
| 20260901152021 | 65 | 161 | 17.0 | 21.0 | 0.00 | 0.00 | 0.00 | 55 | 1020.0 |
| 20260901151517 | 65 | 168 | 12.0 | 20.0 | 0.00 | 0.00 | 0.00 | 56 | 1020.0 |
| 20260901151016 | 65 | 163 | 11.0 | 17.0 | 0.00 | 0.00 | 0.00 | 56 | 1019.9 |
| 20260901150514 | 65 | 160 | 13.0 | 18.0 | 0.00 | 0.00 | 0.00 | 56 | 1019.8 |
| 20260901150013 | 64 | 163 | 12.0 | 20.0 | 0.00 | 0.00 | 0.00 | 57 | 1020.0 |
| 20260901145507 | 64 | 155 | 8.0 | 21.0 | 0.00 | 0.00 | 0.00 | 58 | 1019.8 |
| 20260901145006 | 63 | 173 | 12.0 | 23.0 | 0.00 | 0.00 | 0.00 | 59 | 1019.8 |
| 20260901144502 | 62 | 177 | 9.0 | 17.0 | 0.00 | 0.00 | 0.00 | 61 | 1019.8 |
| 20260901143957 | 62 | 171 | 14.0 | 20.0 | 0.00 | 0.00 | 0.00 | 62 | 1019.8 |
| 20260901143453 | 63 | 157 | 15.0 | 21.0 | 0.00 | 0.00 | 0.00 | 60 | 1019.9 |
| 20260901142950 | 63 | 173 | 15.0 | 19.0 | 0.00 | 0.00 | 0.00 | 60 | 1019.7 |
| 20260901142449 | 63 | 172 | 9.0 | 18.0 | 0.00 | 0.00 | 0.00 | 60 | 1019.7 |
| 20260901141945 | 63 | 141 | 17.0 | 20.0 | 0.00 | 0.00 | 0.00 | 59 | 1019.5 |
| 20260901141444 | 63 | 160 | 15.0 | 20.0 | 0.00 | 0.00 | 0.00 | 59 | 1019.6 |
| 20260901140939 | 64 | 158 | 14.0 | 26.0 | 0.00 | 0.00 | 0.00 | 58 | 1019.6 |
| 20260901140437 | 64 | 161 | 12.0 | 23.0 | 0.00 | 0.00 | 0.00 | 56 | 1019.6 |
| 20260901135932 | 64 | 166 | 9.0 | 19.0 | 0.00 | 0.00 | 0.00 | 54 | 1019.2 |
| 20260901135426 | 63 | 157 | 12.0 | 19.0 | 0.00 | 0.00 | 0.00 | 57 | 1019.5 |
| 20260901134923 | 62 | 161 | 11.0 | 20.0 | 0.00 | 0.00 | 0.00 | 61 | 1019.6 |
| 20260901134418 | 63 | 145 | 17.0 | 19.0 | 0.00 | 0.00 | 0.00 | 61 | 1019.1 |
| 20260901133918 | 64 | 144 | 15.0 | 19.0 | 0.00 | 0.00 | 0.00 | 56 | 1019.3 |
| 20260901133417 | 64 | 127 | 5.0 | 16.0 | 0.00 | 0.00 | 0.00 | 56 | 1019.3 |
| 20260901132917 | 63 | 178 | 17.0 | 20.0 | 0.00 | 0.00 | 0.00 | 60 | 1019.5 |
| 20260901132417 | 63 | 159 | 11.0 | 19.0 | 0.00 | 0.00 | 0.00 | 61 | 1019.1 |
| 20260901131916 | 64 | 172 | 11.0 | 19.0 | 0.00 | 0.00 | 0.00 | 60 | 1019.1 |
| 20260901131415 | 63 | 143 | 17.0 | 24.0 | 0.00 | 0.00 | 0.00 | 58 | 1019.0 |
| 20260901130911 | 63 | 169 | 14.0 | 21.0 | 0.00 | 0.00 | 0.00 | 60 | 1019.0 |
| 20260901130406 | 63 | 202 | 9.0 | 15.0 | 0.00 | 0.00 | 0.00 | 59 | 1019.2 |
| 20260901125904 | 63 | 162 | 7.0 | 20.0 | 0.00 | 0.00 | 0.00 | 59 | 1019.1 |
| 20260901125403 | 63 | 176 | 13.0 | 18.0 | 0.00 | 0.00 | 0.00 | 58 | 1019.0 |
| 20260901124857 | 62 | 163 | 16.0 | 16.0 | 0.00 | 0.00 | 0.00 | 58 | 1019.0 |
| 20260901124353 | 62 | 163 | 16.0 | 16.0 | 0.00 | 0.00 | 0.00 | 58 | 1019.0 |
| 20260901123853 | 62 | 150 | 9.0 | 16.0 | 0.00 | 0.00 | 0.00 | 59 | 1019.0 |
| 20260901123348 | 61 | 160 | 9.0 | 18.0 | 0.00 | 0.00 | 0.00 | 61 | 1019.1 |
| 20260901122845 | 61 | 165 | 9.0 | 16.0 | 0.00 | 0.00 | 0.00 | 63 | 1019.2 |
| 20260901122341 | 61 | 150 | 17.0 | 22.0 | 0.00 | 0.00 | 0.00 | 64 | 1019.2 |
| 20260901121840 | 61 | 172 | 13.0 | 15.0 | 0.00 | 0.00 | 0.00 | 66 | 1019.2 |
| 20260901121336 | 61 | 154 | 18.0 | 20.0 | 0.00 | 0.00 | 0.00 | 66 | 1019.2 |
| 20260901120831 | 60 | 177 | 10.0 | 16.0 | 0.00 | 0.00 | 0.00 | 68 | 1019.6 |
| 20260901120330 | 61 | 160 | 13.0 | 21.0 | 0.00 | 0.00 | 0.00 | 70 | 1019.6 |
| 20260901115826 | 61 | 172 | 8.0 | 19.0 | 0.00 | 0.00 | 0.00 | 66 | 1019.3 |
| 20260901115321 | 62 | 164 | 15.0 | 20.0 | 0.00 | 0.00 | 0.00 | 64 | 1019.2 |
| 20260901114819 | 62 | 177 | 12.0 | 13.0 | 0.00 | 0.00 | 0.00 | 63 | 1019.2 |
| 20260901114314 | 63 | 146 | 10.0 | 17.0 | 0.00 | 0.00 | 0.00 | 58 | 1019.2 |
| 20260901113813 | 63 | 171 | 4.0 | 18.0 | 0.00 | 0.00 | 0.00 | 54 | 1018.9 |
| 20260901113312 | 63 | 174 | 11.0 | 17.0 | 0.00 | 0.00 | 0.00 | 59 | 1019.0 |
| 20260901112808 | 63 | 174 | 10.0 | 20.0 | 0.00 | 0.00 | 0.00 | 56 | 1018.8 |
| 20260901112307 | 63 | 176 | 10.0 | 12.0 | 0.00 | 0.00 | 0.00 | 55 | 1019.1 |
| 20260901111807 | 63 | 176 | 8.0 | 13.0 | 0.00 | 0.00 | 0.00 | 55 | 1019.1 |
| 20260901111306 | 63 | 204 | 10.0 | 15.0 | 0.00 | 0.00 | 0.00 | 56 | 1019.1 |
| 20260901110805 | 62 | 192 | 11.0 | 16.0 | 0.00 | 0.00 | 0.00 | 58 | 1019.0 |
| 20260901110301 | 63 | 157 | 7.0 | 17.0 | 0.00 | 0.00 | 0.00 | 58 | 1019.1 |
| 20260901105757 | 63 | 171 | 13.0 | 20.0 | 0.00 | 0.00 | 0.00 | 57 | 1019.1 |
| 20260901105257 | 63 | 135 | 12.0 | 21.0 | 0.00 | 0.00 | 0.00 | 56 | 1019.1 |
| 20260901104753 | 62 | 180 | 10.0 | 21.0 | 0.00 | 0.00 | 0.00 | 59 | 1019.1 |
| 20260901104248 | 62 | 159 | 10.0 | 16.0 | 0.00 | 0.00 | 0.00 | 57 | 1019.2 |
| 20260901103743 | 62 | 166 | 14.0 | 23.0 | 0.00 | 0.00 | 0.00 | 59 | 1019.2 |
| 20260901103238 | 62 | 166 | 15.0 | 18.0 | 0.00 | 0.00 | 0.00 | 60 | 1019.0 |
| 20260901102732 | 62 | 173 | 20.0 | 23.0 | 0.00 | 0.00 | 0.00 | 62 | 1019.2 |
| 20260901102227 | 62 | 145 | 24.0 | 26.0 | 0.00 | 0.00 | 0.00 | 59 | 1019.1 |
| 20260901101723 | 62 | 159 | 14.0 | 19.0 | 0.00 | 0.00 | 0.00 | 59 | 1019.1 |
| 20260901101223 | 62 | 161 | 10.0 | 23.0 | 0.00 | 0.00 | 0.00 | 61 | 1019.1 |
| 20260901100722 | 61 | 166 | 10.0 | 25.0 | 0.00 | 0.00 | 0.00 | 63 | 1019.2 |
| 20260901100217 | 62 | 147 | 10.0 | 18.0 | 0.00 | 0.00 | 0.00 | 61 | 1019.2 |
| 20260901095715 | 61 | 154 | 22.0 | 23.0 | 0.00 | 0.00 | 0.00 | 63 | 1019.5 |
| 20260901095213 | 62 | 158 | 14.0 | 22.0 | 0.00 | 0.00 | 0.00 | 65 | 1019.1 |
| 20260901094713 | 63 | 162 | 19.0 | 25.0 | 0.00 | 0.00 | 0.00 | 59 | 1019.3 |
| 20260901094208 | 62 | 169 | 17.0 | 26.0 | 0.00 | 0.00 | 0.00 | 60 | 1019.5 |
| 20260901093703 | 61 | 170 | 13.0 | 23.0 | 0.00 | 0.00 | 0.00 | 66 | 1019.2 |
| 20260901093202 | 61 | 160 | 19.0 | 20.0 | 0.00 | 0.00 | 0.00 | 65 | 1019.0 |
| 20260901092658 | 62 | 164 | 11.0 | 22.0 | 0.00 | 0.00 | 0.00 | 62 | 1019.2 |
| 20260901092154 | 62 | 163 | 15.0 | 26.0 | 0.00 | 0.00 | 0.00 | 64 | 1019.1 |
| 20260901091649 | 62 | 173 | 10.0 | 21.0 | 0.00 | 0.00 | 0.00 | 63 | 1019.2 |
| 20260901091150 | 62 | 169 | 12.0 | 29.0 | 0.00 | 0.00 | 0.00 | 63 | 1018.9 |
| 20260901090644 | 61 | 153 | 18.0 | 33.0 | 0.00 | 0.00 | 0.00 | 65 | 1019.2 |
| 20260901090140 | 61 | 164 | 9.0 | 22.0 | 0.00 | 0.00 | 0.00 | 66 | 1019.1 |
| 20260901085636 | 61 | 140 | 9.0 | 23.0 | 0.00 | 0.00 | 0.00 | 67 | 1019.5 |
| 20260901085131 | 60 | 146 | 11.0 | 18.0 | 0.00 | 0.00 | 0.00 | 68 | 1019.2 |
| 20260901084627 | 60 | 135 | 15.0 | 21.0 | 0.00 | 0.00 | 0.00 | 68 | 1019.6 |
| 20260901084124 | 60 | 150 | 12.0 | 18.0 | 0.00 | 0.00 | 0.00 | 70 | 1019.5 |
| 20260901083623 | 60 | 127 | 18.0 | 20.0 | 0.00 | 0.00 | 0.00 | 71 | 1019.6 |
| 20260901083122 | 60 | 163 | 16.0 | 18.0 | 0.00 | 0.00 | 0.00 | 71 | 1019.6 |
| 20260901082616 | 60 | 149 | 10.0 | 19.0 | 0.00 | 0.00 | 0.00 | 70 | 1019.8 |
| 20260901082112 | 60 | 144 | 15.0 | 16.0 | 0.00 | 0.00 | 0.00 | 70 | 1019.6 |
| 20260901081607 | 61 | 154 | 10.0 | 16.0 | 0.00 | 0.00 | 0.00 | 69 | 1019.8 |
| 20260901081102 | 60 | 136 | 7.0 | 18.0 | 0.00 | 0.00 | 0.00 | 70 | 1019.6 |
| 20260901080601 | 60 | 151 | 13.0 | 18.0 | 0.00 | 0.00 | 0.00 | 71 | 1019.7 |
| 20260901080100 | 60 | 161 | 8.0 | 17.0 | 0.00 | 0.00 | 0.00 | 74 | 1019.7 |
| 20260901075556 | 60 | 157 | 11.0 | 18.0 | 0.00 | 0.00 | 0.00 | 74 | 1019.6 |
| 20260901075055 | 60 | 140 | 16.0 | 22.0 | 0.00 | 0.00 | 0.00 | 74 | 1019.7 |
| 20260901074555 | 60 | 159 | 14.0 | 19.0 | 0.00 | 0.00 | 0.00 | 74 | 1019.8 |
| 20260901074050 | 60 | 155 | 16.0 | 26.0 | 0.00 | 0.00 | 0.00 | 74 | 1019.9 |
| 20260901073547 | 60 | 151 | 13.0 | 25.0 | 0.00 | 0.00 | 0.00 | 75 | 1019.7 |
| 20260901073047 | 60 | 162 | 17.0 | 21.0 | 0.00 | 0.00 | 0.00 | 75 | 1019.9 |
| 20260901072542 | 60 | 138 | 14.0 | 19.0 | 0.00 | 0.00 | 0.00 | 75 | 1019.8 |
| 20260901072037 | 60 | 155 | 15.0 | 20.0 | 0.00 | 0.00 | 0.00 | 75 | 1020.1 |
| 20260901071537 | 60 | 140 | 16.0 | 23.0 | 0.00 | 0.00 | 0.00 | 75 | 1020.0 |
| 20260901071036 | 60 | 147 | 12.0 | 23.0 | 0.00 | 0.00 | 0.00 | 75 | 1019.9 |
| 20260901070531 | 60 | 139 | 11.0 | 22.0 | 0.00 | 0.00 | 0.00 | 74 | 1020.0 |
| 20260901070027 | 61 | 167 | 8.0 | 21.0 | 0.00 | 0.00 | 0.00 | 74 | 1019.9 |
| 20260901065521 | 61 | 138 | 8.0 | 16.0 | 0.00 | 0.00 | 0.00 | 74 | 1019.8 |
| 20260901065015 | 61 | 122 | 7.0 | 16.0 | 0.00 | 0.00 | 0.00 | 73 | 1019.9 |
| 20260901064512 | 61 | 156 | 8.0 | 11.0 | 0.00 | 0.00 | 0.00 | 72 | 1020.3 |
| 20260901064009 | 61 | 159 | 11.0 | 14.0 | 0.00 | 0.00 | 0.00 | 71 | 1020.0 |
| 20260901063505 | 61 | 118 | 10.0 | 11.0 | 0.00 | 0.00 | 0.00 | 71 | 1019.9 |
| 20260901063001 | 61 | 137 | 12.0 | 13.0 | 0.00 | 0.00 | 0.00 | 70 | 1020.0 |
| 20260901062456 | 61 | 149 | 7.0 | 15.0 | 0.00 | 0.00 | 0.00 | 70 | 1020.0 |
| 20260901061947 | 61 | 159 | 6.0 | 13.0 | 0.00 | 0.00 | 0.00 | 70 | 1019.9 |
| 20260901061443 | 61 | 161 | 7.0 | 15.0 | 0.00 | 0.00 | 0.00 | 69 | 1020.1 |
| 20260901060942 | 61 | 164 | 10.0 | 16.0 | 0.00 | 0.00 | 0.00 | 69 | 1020.1 |
| 20260901060438 | 61 | 151 | 12.0 | 16.0 | 0.00 | 0.00 | 0.00 | 68 | 1019.9 |
| 20260901055937 | 62 | 121 | 13.0 | 17.0 | 0.00 | 0.04 | 0.04 | 67 | 1019.7 |
| 20260901055434 | 62 | 160 | 4.0 | 16.0 | 0.00 | 0.04 | 0.04 | 66 | 1020.3 |
| 20260901054930 | 62 | 133 | 16.0 | 17.0 | 0.00 | 0.04 | 0.04 | 65 | 1019.9 |
| 20260901054427 | 62 | 152 | 9.0 | 12.0 | 0.00 | 0.04 | 0.04 | 66 | 1019.9 |
| 20260901053923 | 62 | 164 | 8.0 | 11.0 | 0.00 | 0.04 | 0.04 | 67 | 1020.5 |
| 20260901053418 | 62 | 170 | 4.0 | 15.0 | 0.00 | 0.04 | 0.04 | 68 | 1020.1 |
| 20260901052914 | 62 | 170 | 9.0 | 14.0 | 0.00 | 0.04 | 0.04 | 69 | 1020.4 |
| 20260901052409 | 62 | 172 | 7.0 | 12.0 | 0.00 | 0.04 | 0.04 | 69 | 1020.5 |
| 20260901051908 | 62 | 184 | 10.0 | 12.0 | 0.00 | 0.04 | 0.04 | 67 | 1020.4 |
| 20260901051403 | 62 | 149 | 7.0 | 15.0 | 0.00 | 0.04 | 0.04 | 66 | 1020.4 |
| 20260901050858 | 62 | 166 | 10.0 | 17.0 | 0.00 | 0.04 | 0.04 | 69 | 1020.1 |
| 20260901050353 | 62 | 168 | 6.0 | 17.0 | 0.00 | 0.04 | 0.04 | 70 | 1020.4 |
| 20260901045848 | 62 | 178 | 10.0 | 16.0 | 0.00 | 0.04 | 0.04 | 71 | 1020.4 |